DW1105 Weather Reports


time (UTC)temp
F
wind
direction
speed
knots
gust
knots
rain 1hr
in
rain 24hr
in
rain mn
in
humidity
%
barometer
mb
20260504043849 44 248 0.0 0.0 0.00 0.00 0.00 72 1012.3
20260504043325 44 248 0.0 0.0 0.00 0.00 0.00 71 1012.2
20260504042820 44 248 0.0 0.0 0.00 0.00 0.00 71 1012.2
20260504042317 44 248 0.0 0.0 0.00 0.00 0.00 69 1012.1
20260504041817 45 248 0.0 0.0 0.00 0.00 0.00 71 1012.0
20260504041313 45 248 0.0 0.0 0.00 0.00 0.00 71 1011.9
20260504040830 45 248 0.0 0.0 0.00 0.00 0.00 71 1011.9
20260504040326 45 248 0.0 0.0 0.00 0.00 0.00 70 1011.7
20260504035821 45 248 0.0 0.0 0.00 0.00 0.00 69 1011.8
20260504035317 45 248 0.0 0.0 0.00 0.00 0.00 67 1011.8
20260504034813 45 248 0.0 0.0 0.00 0.00 0.00 66 1011.9
20260504034314 45 248 0.0 0.0 0.00 0.00 0.00 65 1012.0
20260504033830 46 248 0.0 0.0 0.00 0.00 0.00 66 1012.0
20260504033346 46 248 0.0 0.0 0.00 0.00 0.00 66 1012.0
20260504032820 46 248 0.0 0.0 0.00 0.00 0.00 65 1011.8
20260504032317 46 248 0.0 0.0 0.00 0.00 0.00 65 1011.9
20260504031814 47 248 0.0 0.0 0.00 0.00 0.00 65 1011.9
20260504031329 47 248 0.0 0.0 0.00 0.00 0.00 65 1011.9
20260504030826 47 248 0.0 0.0 0.00 0.00 0.00 63 1011.9
20260504030343 47 248 0.0 0.0 0.00 0.00 0.00 64 1011.8
20260504025822 47 248 0.0 0.0 0.00 0.00 0.00 63 1011.8
20260504025318 48 248 0.0 0.0 0.00 0.00 0.00 62 1011.8
20260504024814 48 248 0.0 0.0 0.00 0.00 0.00 60 1011.8
20260504024351 48 248 0.0 0.0 0.00 0.00 0.00 59 1011.7
20260504023827 48 248 0.0 0.0 0.00 0.00 0.00 61 1011.8
20260504023323 49 248 0.0 0.0 0.00 0.00 0.00 61 1011.9
20260504022818 49 248 0.0 0.0 0.00 0.00 0.00 56 1011.9
20260504022319 49 248 0.0 0.0 0.00 0.00 0.00 54 1011.9
20260504021815 49 248 0.0 0.0 0.00 0.00 0.00 53 1011.9
20260504021311 50 248 0.0 0.0 0.00 0.00 0.00 53 1011.9
20260504020828 50 248 0.0 0.0 0.00 0.00 0.00 54 1011.8
20260504020324 50 248 0.0 0.0 0.00 0.00 0.00 51 1011.9
20260504015839 50 248 0.0 0.0 0.00 0.00 0.00 51 1011.9
20260504015314 49 248 0.0 0.0 0.00 0.00 0.00 51 1011.9
20260504014850 49 248 0.0 0.0 0.00 0.00 0.00 51 1012.0
20260504014346 50 248 0.0 0.0 0.00 0.00 0.00 51 1011.8
20260504013825 50 248 0.0 0.0 0.00 0.00 0.00 50 1011.8
20260504013342 50 248 0.0 0.0 0.00 0.00 0.00 50 1011.7
20260504012817 50 248 0.0 0.0 0.00 0.00 0.00 50 1011.6
20260504012314 50 248 0.0 0.0 0.00 0.00 0.00 49 1011.6
20260504011850 50 248 0.0 0.0 0.00 0.00 0.00 50 1011.6
20260504011324 50 248 0.0 0.0 0.00 0.00 0.00 49 1011.5
20260504010821 50 248 0.0 0.0 0.00 0.00 0.00 48 1011.5
20260504010317 51 248 0.0 0.0 0.00 0.00 0.00 48 1011.4
20260504005817 51 248 0.0 0.0 0.00 0.00 0.00 47 1011.2
20260504005313 51 248 0.0 0.0 0.00 0.00 0.00 46 1011.2
20260504004830 52 248 0.0 0.0 0.00 0.00 0.00 45 1011.1
20260504004324 52 248 0.0 0.0 0.00 0.00 0.00 44 1011.1
20260504003820 53 248 0.0 0.0 0.00 0.00 0.00 44 1011.0
20260504003317 53 248 0.0 0.0 0.00 0.00 0.00 43 1010.9
20260504002812 53 248 0.0 1.7 0.00 0.00 0.00 42 1010.8
20260504002349 54 248 0.0 1.7 0.00 0.00 0.00 42 1010.7
20260504001828 54 281 0.0 0.9 0.00 0.00 0.00 40 1010.6
20260504001325 55 281 0.0 0.9 0.00 0.00 0.00 39 1010.6
20260504000822 56 281 0.0 0.9 0.00 0.00 0.00 38 1010.5
20260504000319 56 281 0.0 3.5 0.00 0.00 0.00 36 1010.5
20260503235834 57 294 0.9 3.5 0.00 0.00 0.00 35 1010.5
20260503235330 57 347 0.9 2.6 0.00 0.00 0.00 37 1010.3
20260503234826 57 65 0.9 7.0 0.00 0.00 0.00 35 1010.2
20260503234321 57 309 0.0 7.8 0.00 0.00 0.00 35 1010.2
20260503233821 57 306 0.9 6.1 0.00 0.00 0.00 34 1010.2
20260503233318 58 344 0.9 7.8 0.00 0.00 0.00 34 1010.1
20260503232813 58 322 1.7 7.8 0.00 0.00 0.00 36 1010.0
20260503232329 58 288 0.0 7.8 0.00 0.00 0.00 33 1010.0
20260503231825 58 302 2.6 7.8 0.00 0.00 0.00 34 1010.1
20260503231322 58 304 2.6 8.7 0.00 0.00 0.00 33 1010.0
20260503230818 58 290 1.7 8.7 0.00 0.00 0.00 33 1010.0
20260503230318 58 246 1.7 8.7 0.00 0.00 0.00 32 1009.9
20260503225814 58 16 3.5 9.6 0.00 0.00 0.00 32 1009.9
20260503225330 58 349 2.6 9.6 0.00 0.00 0.00 33 1009.9
20260503224827 58 339 3.5 13.9 0.00 0.00 0.00 33 1009.9
20260503224323 58 274 5.2 13.0 0.00 0.00 0.00 32 1009.7
20260503223819 59 334 5.2 13.9 0.00 0.00 0.00 34 1009.8
20260503223316 59 265 2.6 15.6 0.00 0.00 0.00 33 1009.8
20260503222815 59 347 6.1 15.6 0.00 0.00 0.00 32 1009.8
20260503222311 58 360 3.5 12.2 0.00 0.00 0.00 32 1009.8
20260503221827 58 295 4.3 13.0 0.00 0.00 0.00 33 1009.8
20260503221343 59 342 7.8 13.9 0.00 0.00 0.00 31 1009.9
20260503220819 59 265 5.2 11.3 0.00 0.00 0.00 31 1009.8
20260503220315 59 315 4.3 10.4 0.00 0.00 0.00 33 1009.8
20260503215811 59 350 2.6 10.4 0.00 0.00 0.00 31 1009.8
20260503215311 58 320 4.3 13.0 0.00 0.00 0.00 33 1009.7
20260503214828 59 286 5.2 13.9 0.00 0.00 0.00 30 1009.7
20260503214321 59 311 6.1 13.9 0.00 0.00 0.00 31 1009.7
20260503213817 59 333 2.6 11.3 0.00 0.00 0.00 29 1009.8
20260503213314 58 300 3.5 13.9 0.00 0.00 0.00 29 1009.8
20260503212827 58 13 6.1 12.2 0.00 0.00 0.00 31 1009.7
20260503212343 59 360 4.3 12.2 0.00 0.00 0.00 30 1009.7
20260503211816 58 294 6.1 12.2 0.00 0.00 0.00 30 1009.7
20260503211329 58 312 4.3 12.2 0.00 0.00 0.00 31 1009.6
20260503210827 58 332 4.3 12.2 0.00 0.00 0.00 33 1009.8
20260503210324 58 229 3.5 20.0 0.00 0.00 0.00 31 1009.8
20260503205816 58 350 4.3 20.0 0.00 0.00 0.00 31 1009.7
20260503205330 58 292 7.8 15.6 0.00 0.00 0.00 31 1009.8
20260503204823 58 344 5.2 15.6 0.00 0.00 0.00 30 1009.7
20260503204318 58 333 6.1 13.0 0.00 0.00 0.00 29 1009.9
20260503203815 58 323 5.2 15.6 0.00 0.00 0.00 29 1009.9
20260503203336 57 16 7.8 15.6 0.00 0.00 0.00 32 1010.0
20260503202827 57 331 7.0 15.6 0.00 0.00 0.00 31 1009.9
20260503202320 57 351 7.8 16.5 0.00 0.00 0.00 33 1009.9
20260503201817 57 209 5.2 10.4 0.00 0.00 0.00 31 1010.0
20260503201330 58 299 1.7 17.4 0.00 0.00 0.00 32 1009.9
20260503200826 58 317 7.0 17.4 0.00 0.00 0.00 33 1009.9
20260503200343 57 336 5.2 13.0 0.00 0.00 0.00 34 1010.0
20260503195817 56 14 3.5 13.0 0.00 0.00 0.00 32 1010.0
20260503195335 56 336 5.2 13.9 0.00 0.00 0.00 33 1010.1
20260503194814 56 337 7.0 13.9 0.00 0.00 0.00 34 1010.2
20260503194330 57 5 5.2 11.3 0.00 0.00 0.00 34 1010.1
20260503193846 57 333 7.0 11.3 0.00 0.00 0.00 33 1010.1
20260503193322 57 327 3.5 15.6 0.00 0.00 0.00 32 1010.1
20260503192819 58 331 5.2 15.6 0.00 0.00 0.00 32 1010.2
20260503192315 57 360 7.0 15.6 0.00 0.00 0.00 33 1010.3
20260503191811 57 281 4.3 10.4 0.00 0.00 0.00 35 1010.3
20260503191348 57 231 3.5 15.6 0.00 0.00 0.00 33 1010.2
20260503190828 56 89 4.3 15.6 0.00 0.00 0.00 33 1010.4
20260503190321 56 332 4.3 13.0 0.00 0.00 0.00 33 1010.4
20260503185854 56 249 5.2 13.9 0.00 0.00 0.00 34 1010.4
20260503185327 56 347 6.1 14.8 0.00 0.00 0.00 34 1010.5
20260503184843 56 5 7.8 14.8 0.00 0.00 0.00 35 1010.6
20260503184316 56 323 7.0 14.8 0.00 0.00 0.00 35 1010.4
20260503183812 56 336 5.2 13.9 0.00 0.00 0.00 34 1010.5
20260503183329 56 333 6.1 13.9 0.00 0.00 0.00 35 1010.6
20260503182825 55 300 4.3 14.8 0.00 0.00 0.00 39 1010.7
20260503182326 54 299 8.7 14.8 0.00 0.00 0.00 40 1010.6
20260503181822 53 313 7.8 14.8 0.00 0.00 0.00 37 1010.7
20260503181314 53 331 6.1 14.8 0.00 0.00 0.00 38 1010.7
20260503180830 53 5 6.1 14.8 0.00 0.00 0.00 37 1010.8
20260503180324 53 311 5.2 12.2 0.00 0.00 0.00 38 1010.7
20260503175839 54 287 5.2 13.0 0.00 0.00 0.00 37 1010.7
20260503175336 53 328 6.1 12.2 0.00 0.00 0.00 39 1010.7
20260503174832 53 325 6.1 16.5 0.00 0.00 0.00 39 1010.7
20260503174328 52 227 5.2 16.5 0.00 0.00 0.00 41 1011.1
20260503173825 53 165 5.2 14.8 0.00 0.00 0.00 39 1011.0
20260503173322 53 319 4.3 15.6 0.00 0.00 0.00 40 1011.1
20260503172816 52 250 6.1 16.5 0.00 0.00 0.00 41 1011.1
20260503172333 52 23 7.8 16.5 0.00 0.00 0.00 40 1011.0
20260503171828 52 13 2.6 11.3 0.00 0.00 0.00 43 1011.1
20260503171323 51 263 5.2 10.4 0.00 0.00 0.00 44 1011.2
20260503170820 51 360 1.7 10.4 0.00 0.00 0.00 43 1011.2
20260503170320 51 338 7.0 13.9 0.00 0.00 0.00 43 1011.4
20260503150813 48 333 5.2 13.0 0.00 0.00 0.00 47 1011.9
20260503150315 48 277 7.8 13.0 0.00 0.00 0.00 45 1011.9
20260503131317 46 269 5.2 11.3 0.00 0.00 0.00 57 1011.8
20260503130812 46 338 6.1 11.3 0.00 0.00 0.00 57 1011.8
20260503130329 46 339 1.7 11.3 0.00 0.00 0.00 57 1011.8
20260503110814 43 304 4.3 8.7 0.00 0.00 0.00 63 1011.1
20260503110311 43 250 2.6 8.7 0.00 0.00 0.00 64 1011.0
20260503090330 43 285 2.6 7.8 0.00 0.00 0.00 60 1010.2
20260503081314 45 5 2.6 8.7 0.00 0.00 0.00 57 1010.2
20260503080810 45 314 1.7 8.7 0.00 0.00 0.00 57 1010.2
20260503080327 45 305 1.7 7.0 0.00 0.00 0.00 59 1010.2
20260503072824 46 301 2.6 7.0 0.00 0.00 0.00 57 1010.0
20260503072321 46 344 3.5 7.0 0.00 0.00 0.00 56 1010.0
20260503071821 46 318 2.6 8.7 0.00 0.00 0.00 56 1010.0
20260503071317 46 355 3.5 7.8 0.00 0.00 0.00 57 1010.0
20260503070814 46 348 1.7 4.3 0.00 0.00 0.00 56 1010.0
20260503070310 46 319 0.9 2.6 0.00 0.00 0.00 57 1010.0
20260503060314 47 340 1.7 4.3 0.00 0.00 0.00 52 1010.4
20260503054822 47 320 1.7 7.0 0.00 0.00 0.00 52 1010.5
20260503054316 47 314 0.0 3.5 0.00 0.00 0.00 54 1010.5
20260503053813 47 46 0.9 4.3 0.00 0.00 0.00 54 1010.4
20260503053313 48 345 1.7 7.0 0.00 0.00 0.00 52 1010.4
20260503052828 48 319 3.5 7.8 0.00 0.00 0.00 51 1010.5
20260503052324 48 33 4.3 7.8 0.00 0.00 0.00 51 1010.5
20260503051821 48 328 2.6 7.0 0.00 0.00 0.00 52 1010.6
20260503051317 48 5 2.6 8.7 0.00 0.00 0.00 51 1010.6
20260503050813 48 333 5.2 8.7 0.00 0.00 0.00 50 1010.5
20260503050310 48 332 3.5 7.0 0.00 0.00 0.00 50 1010.6
20260503045826 48 341 3.5 7.0 0.00 0.00 0.00 50 1010.5
20260503045326 48 327 3.5 7.8 0.00 0.00 0.00 49 1010.5
20260503044823 48 298 4.3 7.8 0.00 0.00 0.00 49 1010.6
20260503044318 48 330 3.5 7.0 0.00 0.00 0.00 48 1010.7